This demonstration page uses our WeatherBlox Daily Observations layout. Learn more.

Left ArrowRight Arrow

40.92945, -100.16068

Hourly Observations for October 30, 2018

Temp ( °F °C ) Dew Point ( °F °C ) Humidity (%) Winds ( mph kmh ) Pressure ( in mb ) Visibility ( mi km ) Precip ( " mm )
12:15 am 00:15 Clear 53 11.5 39 4.1 61 61 N 16 26 29.8 1009 10 16.0934 0 0
12:35 am 00:35 Clear 52 11 39 3.8 61 61 N 14 22 29.85 1011 10 16.0934 0 0
12:55 am 00:55 Clear 51 10.4 38 3.5 63 63 N 13 20 29.85 1011 10 16.0934 0 0
1:15 am 01:15 Clear 50 10 37 3 62 62 N 14 22 29.85 1011 10 16.0934 0 0
1:35 am 01:35 Clear 49 9.7 37 3 63 63 N 12 19 29.85 1011 10 16.0934 0 0
1:55 am 01:55 Clear 49 9.3 38 3.2 66 66 N 12 19 29.88 1012 10 16.0934 0 0
2:15 am 02:15 Clear 49 9.2 39 3.8 69 69 N 10 17 29.88 1012 10 16.0934 0 0
2:35 am 02:35 Clear 49 9.3 40 4.2 71 71 N 14 22 29.88 1012 10 16.0934 0 0
2:55 am 02:55 Clear 48 8.7 39 4.1 73 73 N 13 20 29.91 1013 10 16.0934 0 0
3:15 am 03:15 Clear 48 8.7 39 4.1 73 73 N 14 22 29.91 1013 10 16.0934 0 0
3:35 am 03:35 Clear 47 8.5 40 4.2 75 75 N 16 26 29.91 1013 10 16.0934 0 0
3:55 am 03:55 Clear 47 8.5 40 4.4 76 76 N 15 24 29.91 1013 10 16.0934 0 0
4:15 am 04:15 Clear 47 8.2 40 4.5 78 78 N 14 22 29.94 1014 10 16.0934 0 0
4:35 am 04:35 Clear 47 8.1 40 4.3 77 77 N 10 17 29.94 1014 10 16.0934 0 0
4:55 am 04:55 Clear 47 8.1 40 4.2 77 77 N 12 19 29.94 1014 10 16.0934 0 0
5:15 am 05:15 Clear 46 8 39 4.1 77 77 N 9 15 29.94 1014 10 16.0934 0 0
5:35 am 05:35 Clear 46 7.7 39 4.1 78 78 N 8 13 29.94 1014 10 16.0934 0 0
5:55 am 05:55 Clear 45 7.4 39 4.1 80 80 N 9 15 29.97 1015 10 16.0934 0 0
6:15 am 06:15 Clear 45 7.2 39 4.1 81 81 N 13 20 29.97 1015 10 16.0934 0 0
6:35 am 06:35 Clear 45 7 39 4.1 82 82 NNW 10 17 30 1016 10 16.0934 0 0
6:55 am 06:55 Clear 45 7 40 4.2 83 83 NNW 10 17 30 1016 10 16.0934 0 0
7:15 am 07:15 Clear 45 7.2 40 4.3 82 82 N 10 17 30 1016 10 16.0934 0 0
7:35 am 07:35 Clear 45 7.2 40 4.4 83 83 N 13 20 30 1016 10 16.0934 0 0
7:55 am 07:55 Clear 45 7.3 40 4.3 81 81 N 13 20 30 1016 10 16.0934 0 0
8:15 am 08:15 Sunny 45 7.2 40 4.3 82 82 NNW 9 15 30 1016 10 16.0934 0 0
8:35 am 08:35 Sunny 45 7.2 40 4.3 82 82 N 12 19 30 1016 10 16.0934 0 0
8:55 am 08:55 Sunny 45 7.3 40 4.5 83 83 NNW 13 20 30 1016 10 16.0934 0 0
9:15 am 09:15 Sunny 46 7.5 40 4.5 81 81 NNW 12 19 30.03 1017 10 16.0934 0 0
9:35 am 09:35 Sunny 46 7.8 40 4.5 80 80 N 12 19 30.03 1017 10 16.0934 0 0
9:55 am 09:55 Sunny 46 8 40 4.5 79 79 NW 9 15 30.03 1017 10 16.0934 0 0
10:15 am 10:15 Sunny 47 8.3 40 4.6 78 78 NNW 10 17 30.03 1017 10 16.0934 0 0
10:35 am 10:35 Partly Cloudy 47 8.5 40 4.5 76 76 NNW 12 19 30.06 1018 10 16.0934 0 0
10:55 am 10:55 Mostly Cloudy 48 8.8 40 4.6 75 75 NNW 12 19 30.06 1018 10 16.0934 0 0
11:15 am 11:15 Cloudy 48 9.1 40 4.7 74 74 NNW 12 19 30.06 1018 10 16.0934 0 0
11:35 am 11:35 Mostly Cloudy 49 9.5 40 4.6 72 72 NNW 13 20 30.06 1018 10 16.0934 0 0
11:55 am 11:55 Cloudy 49 9.6 40 4.6 71 71 N 16 26 30.06 1018 10 16.0934 0 0
12:15 pm 12:15 Cloudy 50 9.9 40 4.7 70 70 N 17 28 30.06 1018 10 16.0934 0 0
12:35 pm 12:35 Cloudy 50 10 40 4.6 69 69 N 14 22 30.06 1018 10 16.0934 0 0
12:55 pm 12:55 Cloudy 51 10.5 40 4.6 67 67 N 15 24 30.03 1017 10 16.0934 0 0
1:15 pm 13:15 Mostly Cloudy 52 11 40 4.3 64 64 N 13 20 30.03 1017 10 16.0934 0 0
1:35 pm 13:35 Partly Cloudy 53 11.4 39 4 61 61 N 15 24 30 1016 10 16.0934 0 0
1:55 pm 13:55 Sunny 54 12 38 3.5 56 56 N 15 24 30 1016 10 16.0934 0 0
2:15 pm 14:15 Sunny 54 12.3 37 2.9 53 53 N 15 24 30 1016 10 16.0934 0 0
2:35 pm 14:35 Partly Cloudy 54 12.4 36 2 49 49 NNE 13 20 30 1016 10 16.0934 0 0
2:55 pm 14:55 Mostly Cloudy 55 12.7 35 1.5 47 47 N 15 24 30 1016 10 16.0934 0 0
3:15 pm 15:15 Mostly Cloudy 56 13.4 35 1.5 45 45 N 14 22 29.97 1015 10 16.0934 0 0
3:35 pm 15:35 Partly Cloudy 56 13.4 32 0.2 41 41 NNE 15 24 29.97 1015 10 16.0934 0 0
3:55 pm 15:55 Sunny 56 13.3 33 0.8 43 43 N 14 22 29.97 1015 10 16.0934 0 0
4:15 pm 16:15 Partly Cloudy 56 13.1 34 1.1 44 44 NNE 12 19 30 1016 10 16.0934 0 0
4:35 pm 16:35 Mostly Cloudy 55 13 34 0.9 44 44 N 15 24 30 1016 10 16.0934 0 0
4:55 pm 16:55 Partly Cloudy 55 12.7 33 0.8 44 44 N 12 19 30 1016 10 16.0934 0 0
5:15 pm 17:15 Sunny 55 12.5 33 0.3 43 43 NNE 12 19 30 1016 10 16.0934 0 0
5:35 pm 17:35 Sunny 55 12.5 33 0.6 44 44 NNE 7 11 30 1016 10 16.0934 0 0
5:55 pm 17:55 Sunny 54 12.1 33 0.8 46 46 NNE 7 11 30 1016 10 16.0934 0 0
6:15 pm 18:15 Sunny 53 11.5 34 1 49 49 NNE 6 9 30.03 1017 10 16.0934 0 0
6:35 pm 18:35 Sunny 51 10.4 33 0.6 51 51 NNE 3 6 30.03 1017 10 16.0934 0 0
6:55 pm 18:55 Partly Cloudy 49 9.7 33 0.7 54 54 N 6 9 30.06 1018 10 16.0934 0 0
7:15 pm 19:15 Partly Cloudy 46 7.9 34 1 62 62 N 6 9 30.06 1018 10 16.0934 0 0
7:35 pm 19:35 Partly Cloudy 47 8.2 34 1 61 61 N 5 7 30.06 1018 10 16.0934 0 0
7:55 pm 19:55 Clear 46 8 34 1.2 63 63 N 3 6 30.06 1018 10 16.0934 0 0
8:15 pm 20:15 Partly Cloudy 46 7.5 35 1.9 68 68 Calm 30.06 1018 10 16.0934 0 0
8:35 pm 20:35 Partly Cloudy 45 7.2 35 1.7 68 68 Calm 30.06 1018 10 16.0934 0 0
8:55 pm 20:55 Partly Cloudy 45 7 37 2.6 74 74 NW 5 7 30.09 1019 10 16.0934 0 0
9:15 pm 21:15 Mostly Cloudy 44 6.9 37 2.9 76 76 WNW 3 6 30.09 1019 10 16.0934 0 0
9:35 pm 21:35 Mostly Cloudy 45 7 37 3 76 76 Calm 30.09 1019 10 16.0934 0 0
9:55 pm 21:55 Partly Cloudy 44 6.6 36 2 73 73 W 3 6 30.09 1019 10 16.0934 0 0
10:15 pm 22:15 Clear 43 6.2 36 2.3 76 76 WNW 5 7 30.09 1019 10 16.0934 0 0
10:35 pm 22:35 Partly Cloudy 42 5.7 36 2 77 77 WNW 5 7 30.09 1019 10 16.0934 0 0
10:55 pm 22:55 Partly Cloudy 42 5.5 36 2.2 80 80 WNW 5 7 30.09 1019 10 16.0934 0 0
11:15 pm 23:15 Partly Cloudy 43 6.2 37 2.5 77 77 W 3 6 30.09 1019 10 16.0934 0 0
11:35 pm 23:35 Partly Cloudy 43 6.3 36 2.2 75 75 W 3 6 30.12 1020 10 16.0934 0 0
11:55 pm 23:55 Mostly Cloudy 43 6.2 36 2.4 77 77 WNW 5 7 30.12 1020 10 16.0934 0 0

Powered by AerisWeather